Regional Weather Roundup
Issued by NWS

Home | Current Version | Previous Version | Text Only | Print | Product List | Glossary On
Versions: 1 2 3 4 5 6 7 8 9 10 11 12 13 14 15 16 17 18 19 20 21 22 23 24 25 26 27
000
ASUS45 KBOI 250410
RWRID

IDAHO REGIONAL WEATHER ROUNDUP
NATIONAL WEATHER SERVICE BOISE ID
1000 PM MDT SUN JUL 24 2016

NOTE: "FAIR" INDICATES FEW OR NO CLOUDS BELOW 12000 FEET
WITH NO SIGNIFICANT WEATHER AND/OR OBSTRUCTIONS TO VISIBILITY

IDZ012-014-250500-
SOUTHWEST IDAHO


CITY           SKY/WX    TMP DP  RH WIND       PRES   REMARKS
BOISE          CLEAR     80  40  23 CALM      29.96S
CALDWELL       NOT AVBL
MOUNTAIN HOME  CLEAR     80  35  19 NW8       29.96R
$$

IDZ016-017-250500-
SOUTHCENTRAL IDAHO


CITY           SKY/WX    TMP DP  RH WIND       PRES   REMARKS
BURLEY         CLEAR     65  50  58 CALM      30.04R
JEROME         CLEAR     69  39  33 E5        30.04S
TWIN FALLS     CLEAR     63  31  30 S7        30.05S
$$

IDZ019>023-250500-
SOUTHEAST IDAHO


CITY           SKY/WX    TMP DP  RH WIND       PRES   REMARKS
IDAHO FALLS    CLEAR     66  48  52 CALM      30.10R
POCATELLO      CLEAR     70  28  21 E5        30.08R
REXBURG        CLEAR     68  44  42 CALM      30.11R
$$

IDZ006-010-011-018-031-032-250500-
CENTRAL IDAHO MOUNTAINS


CITY           SKY/WX    TMP DP  RH WIND       PRES   REMARKS
MCCALL         CLEAR     67  41  38 CALM      30.13R
HAILEY         CLEAR     63  45  51 NW3       30.14R
STANLEY        NOT AVBL
SALMON         CLEAR     72  39  30 CALM      29.99R
CHALLIS        CLEAR     78  34  20 NW8       30.07R
$$

IDZ002-004-006-007-026-250500-
NORTHERN IDAHO


CITY           SKY/WX    TMP DP  RH WIND       PRES   REMARKS
LEWISTON       CLEAR     85  43  22 CALM      29.94S
LOWELL           N/A     66  54  65 CALM      29.98R
COEUR D`ALENE  CLEAR     72  54  53 CALM      29.98S
MULLAN PASS    CLEAR     60  44  55 NW6       30.22R
$$




USA.gov is the U.S. government's official web portal to all federal, state and local government web resources and services.